Погода в Рязановке

Россия / Оренбургская область     53°23′27″N   53°10′58″E
темп.,
°C
ветер,
м/с
пор.,
м/с
влажн.,
%
обл.,
%
осадки,
мм/ч
давл.,
гПа
погр.,
м
18 апреля, вс
вс1823:00+11св511571 0.0 1020273
02:00+8св410634 0.0 1019232
05:00+6св49624 0.0 1019170
08:00+7св49570 0.0 1019270
11:00+12св56390 0.0 1018571
14:00+14св55350 0.0 10181074
17:00+15св66324 0.0 10181392
20:00+11св59474 0.0 1019334
19 апреля, пн
пн1923:00+8св713662 0.0 1020550
02:00+5св713740 0.0 1021447
05:00+4всв612805 0.0 1022457
08:00+4в71165100 0.0 1023767
11:00+4в81163100 0.0 1025856
14:00+4в81069100 0.0 1026910
17:00+8вюв6944100 0.0 10251490
20:00+7в61045100 0.0 1026448
20 апреля, вт
вт2023:00+4в613468 0.0 1028487
02:00+1вюв612460 0.0 1030462
05:00−1в612490 0.0 1032442
08:000в711440 0.0 1033700
11:00+4вюв79320 0.0 10331080
14:00+7вюв78280 0.0 10321277
17:00+8вюв67270 0.0 10311429
20:00+6вюв47380 0.0 1030176
21 апреля, ср
ср2123:00+3вюв334764 0.0 103150
02:00+2юв225329 0.0 103127
05:000вюв4957100 0.0 1032188
08:00+2юв5115030 0.0 1032473
11:00+7юв71034100 0.0 1031802
14:00+10ююв81027100 0.0 10311233
17:00+11ююв81028100 0.0 10301324
20:00+9ююв61239100 0.0 1030437
22 апреля, чт
чт2223:00+7юв51345100 0.0 1031338
02:00+6ююв51350100 0.0 1032398
05:00+5ююв51156100 0.0 1032346
08:00+6ююв51255100 0.0 1033526
11:00+9ю6943100 0.0 1033960
14:00+11ю71035100 0.0 10331328
17:00+12ю7935100 0.0 10321489
20:00+10ююз3548100 0.0 1032112